Погода в Санта-Тересе

Коста-Рика     9°38′23″N   85°09′49″W
темп.,
°C
ветер,
м/с
пор.,
м/с
влажн.,
%
обл.,
%
осадки,
мм/ч
давл.,
гПа
погр.,
м
16 апреля, пт
пт1600:00+27вюв2380100 1.4 1010182
03:00+26всв2281100 0.3 1009180
06:00+26всв1181100 0.8 1010138
09:00+28ссв1268100 0.0 1011603
12:00+30зюз436399 0.1 1009991
15:00+29юз436744 0.9 1007720
18:00+28з227333 2.2 1009376
21:00+27юз1277100 7.3 101195
17 апреля, сб
сб1700:00+26юв2379100 10.8 1011179
03:00+26вюв2381100 0.6 1009237
06:00+26в2281100 0.7 1011272
09:00+29юв226855 0.1 1012877
12:00+29ю336936 4.1 1010761
15:00+28ююз437031 2.2 1009865
18:00+27юз227594 2.5 1010538
21:00+27ююв2280100 3.6 1012201
18 апреля, вс
вс1800:00+26юв128281 4.7 1011132
03:00+26вюв128358 2.6 1010142
06:00+26всв118182 4.8 1011157
09:00+28ююв1169100 0.1 1012721
12:00+28ююз337080 1.3 1011732
15:00+28юз336967 1.6 1008806
18:00+27ю127464 1.8 1010432
21:00+27вюв1279100 1.9 1012170
19 апреля, пн
пн1900:00+26в2383100 1.9 1011315
03:00+26всв1283100 0.0 1009225
06:00+26всв128290 0.1 1011181
09:00+28в117074 0.6 1012716
12:00+29ююз326942 2.3 1010753
15:00+29юз3372100 2.9 1008761
18:00+27ююз227697 4.1 1009466
21:00+27ююв1280100 2.6 1011275
20 апреля, вт
вт2000:00+27юв1282100 5.8 101193
03:00+26в1182100 0.4 1009180
06:00+26в128294 2.9 101197
09:00+27юв2277100 6.1 1012235
12:00+28ююз227298 14.5 1011469
15:00+28з337372 4.3 1009671
18:00+27ссз017565 4.6 1010177
21:00+26всв228295 0.0 1011155